Simultaneous Nadir Overpasses (SNOs) Predictions

Prediction of SNOs between GOES-16 and LANDSAT-8 Satellite Orbit:

Table of predicted SNOs for the next 14.0 days since TLE Epoch: 5/9/2025
Index Date Time (GOES-16) GOES-16 Lat,Lon LANDSAT-8 Lat,Lon Distance(km) Time Diff (sec)
1 05/11/2025 04:04:43 -0.06, -90.89 0.42, -88.67 253.18 80
2 05/11/2025 16:28:39 0.06, -91.19 0.60, -93.84 300.91 80
3 05/13/2025 16:13:52 0.06, -92.22 -0.25, -90.93 148.31 80
4 05/14/2025 04:37:57 -0.05, -92.47 -0.82, -96.13 415.70 80
5 05/16/2025 04:23:09 -0.05, -93.50 -0.01, -93.20 33.59 80
6 05/18/2025 04:11:02 -0.04, -94.54 0.87, -90.30 482.87 80
7 05/18/2025 16:34:59 0.04, -94.84 0.14, -95.47 71.15 80
8 05/20/2025 16:20:11 0.03, -95.88 -0.69, -92.56 378.88 80
9 05/21/2025 04:44:16 -0.03, -96.13 -0.36, -97.76 184.72 80
10 05/23/2025 04:29:28 -0.03, -97.17 0.50, -94.84 265.82 80
11 05/23/2025 16:53:24 0.03, -97.47 0.57,-100.00 288.02 80
